This is the latest recevied weather packets stored in our database for station/object WB0OCV. If no packets are shown the sender has not sent any weather packets the latest 1 day(s).
| Time | Temp. | Humidity | Pressure | Rain* | Wind** | Luminosity | Snow |
|---|---|---|---|---|---|---|---|
| 1777999051 | 17.78° C | 71% | 1015.1 hPa | 0 mm | 0.45 m/s, 208° | 805 W/m² | - |
| 1777998750 | 18.33° C | 69% | 1015.2 hPa | 0 mm | 1.79 m/s, 122° | 803 W/m² | - |
| 1777998446 | 18.89° C | 67% | 1015.4 hPa | 0 mm | 0.89 m/s, 203° | 801 W/m² | - |
| 1777998143 | 18.33° C | 68% | 1015.4 hPa | 0 mm | 1.34 m/s, 353° | 802 W/m² | - |
| 1777997840 | 18.33° C | 70% | 1015.3 hPa | 0 mm | 1.34 m/s, 187° | 800 W/m² | - |
| 1777997538 | 18.89° C | 67% | 1015.1 hPa | 0 mm | 0.45 m/s, 188° | 798 W/m² | - |
| 1777997235 | 18.89° C | 68% | 1015.3 hPa | 0 mm | 1.79 m/s, 254° | 793 W/m² | - |
| 1777996933 | 18.33° C | 69% | 1015.4 hPa | 0 mm | 1.79 m/s, 249° | 786 W/m² | - |
| 1777996629 | 18.33° C | 75% | 1015.4 hPa | 0 mm | 0.89 m/s, 348° | 785 W/m² | - |
| 1777996325 | 17.78° C | 70% | 1015.5 hPa | 0 mm | 1.34 m/s, 151° | 784 W/m² | - |
| 1777996021 | 17.78° C | 69% | 1015.3 hPa | 0 mm | 2.24 m/s, 102° | 780 W/m² | - |
| 1777995718 | 18.33° C | 71% | 1015.4 hPa | 0 mm | 1.34 m/s, 157° | 776 W/m² | - |
| 1777995415 | 18.33° C | 68% | 1015.5 hPa | 0 mm | 1.34 m/s, 134° | 775 W/m² | - |
| 1777995112 | 18.89° C | 67% | 1015.5 hPa | 0 mm | 0.89 m/s, 145° | 767 W/m² | - |
| 1777994809 | 17.78° C | 69% | 1015.5 hPa | 0 mm | 0.89 m/s, 97° | 762 W/m² | - |
| 1777994504 | 17.78° C | 70% | 1015.3 hPa | 0 mm | 1.79 m/s, 240° | 753 W/m² | - |
| 1777994200 | 17.78° C | 72% | 1015.7 hPa | 0 mm | 1.79 m/s, 238° | 746 W/m² | - |
| 1777993897 | 18.33° C | 69% | 1015.4 hPa | 0 mm | 0.89 m/s, 198° | 742 W/m² | - |
| 1777993593 | 17.78° C | 70% | 1015.6 hPa | 0 mm | 0.89 m/s, 184° | 737 W/m² | - |
| 1777993291 | 17.22° C | 72% | 1015.3 hPa | 0 mm | 0.89 m/s, 209° | 729 W/m² | - |
| 1777992986 | 17.22° C | 71% | 1015.2 hPa | 0 mm | 0.89 m/s, 201° | 720 W/m² | - |
| 1777992685 | 17.78° C | 71% | 1015.2 hPa | 0 mm | 0.89 m/s, 171° | 712 W/m² | - |
| 1777992382 | 17.78° C | 69% | 1015.2 hPa | 0 mm | 1.34 m/s, 178° | 707 W/m² | - |
| 1777992080 | 17.22° C | 72% | 1015.3 hPa | 0 mm | 1.79 m/s, 259° | 696 W/m² | - |
| 1777991777 | 17.22° C | 72% | 1015.1 hPa | 0 mm | 0.45 m/s, 154° | 687 W/m² | - |
* Rain latest hour (hover to see other rain measurements)
** Current wind speed in m/s (hover to see current wind gust speed)